| time (UTC) | temp F | wind direction | speed MPH | gust MPH | rain 1hr in | rain 24hr in | rain mn in | humidity % | barometer mb |
| 20260904181537 | 56 | 323 | 0.0 | 5.0 | 0.00 | 0.02 | 0.02 | 83 | 1015.8 |
| 20260904180034 | 54 | 315 | 0.0 | 1.0 | 0.00 | 0.02 | 0.02 | 86 | 1015.8 |
| 20260904173036 | 53 | 315 | 1.0 | 3.0 | 0.00 | 0.02 | 0.02 | 85 | 1015.8 |
| 20260904171532 | 54 | 282 | 1.0 | 4.0 | 0.00 | 0.02 | 0.02 | 84 | 1015.8 |
| 20260904170035 | 54 | 290 | 2.0 | 5.0 | 0.00 | 0.02 | 0.02 | 86 | 1015.7 |
| 20260904160034 | 53 | 67 | 1.0 | 4.0 | 0.00 | 0.02 | 0.02 | 90 | 1015.6 |
| 20260904153154 | 50 | 135 | 0.0 | 0.0 | 0.00 | 0.02 | 0.02 | 98 | 1015.4 |
| 20260904151534 | 50 | 135 | 0.0 | 0.0 | 0.00 | 0.02 | 0.02 | 98 | 1015.2 |
| 20260904150034 | 49 | 135 | 0.0 | 0.0 | 0.00 | 0.02 | 0.02 | 98 | 1015.0 |
| 20260904143035 | 49 | 135 | 0.0 | 0.0 | 0.00 | 0.02 | 0.02 | 98 | 1014.8 |
| 20260904141536 | 49 | 108 | 0.0 | 2.0 | 0.00 | 0.02 | 0.02 | 98 | 1014.6 |
| 20260904140037 | 48 | 45 | 0.0 | 2.0 | 0.00 | 0.02 | 0.02 | 98 | 1014.5 |
| 20260904134535 | 48 | 45 | 1.0 | 3.0 | 0.00 | 0.02 | 0.02 | 98 | 1014.4 |
| 20260904133037 | 48 | 45 | 0.0 | 0.0 | 0.00 | 0.02 | 0.02 | 98 | 1014.1 |
| 20260904130035 | 49 | 45 | 0.0 | 0.0 | 0.02 | 0.02 | 0.02 | 98 | 1013.9 |
| 20260904124531 | 48 | 45 | 0.0 | 2.0 | 0.02 | 0.02 | 0.00 | 97 | 1013.9 |
| 20260904120034 | 49 | 45 | 0.0 | 0.0 | 0.00 | 0.00 | 0.00 | 97 | 1013.7 |
| 20260904114536 | 49 | 45 | 0.0 | 0.0 | 0.00 | 0.00 | 0.00 | 97 | 1013.6 |
| 20260904113033 | 49 | 45 | 0.0 | 0.0 | 0.00 | 0.00 | 0.00 | 97 | 1013.5 |
| 20260904111532 | 49 | 45 | 0.0 | 1.0 | 0.00 | 0.00 | 0.00 | 97 | 1013.4 |
| 20260904110034 | 49 | 98 | 1.0 | 2.0 | 0.00 | 0.00 | 0.00 | 97 | 1013.2 |
| 20260904104611 | 49 | 157 | 0.0 | 1.0 | 0.00 | 0.00 | 0.00 | 97 | 1013.2 |
| 20260904103035 | 49 | 89 | 0.0 | 2.0 | 0.00 | 0.00 | 0.00 | 97 | 1013.1 |
| 20260904101532 | 49 | 72 | 1.0 | 2.0 | 0.00 | 0.00 | 0.00 | 97 | 1012.9 |
| 20260904100034 | 48 | 180 | 0.0 | 1.0 | 0.00 | 0.00 | 0.00 | 97 | 1012.7 |
| 20260904094531 | 48 | 180 | 2.0 | 2.0 | 0.00 | 0.00 | 0.00 | 97 | 1012.7 |
| 20260904091532 | 47 | 180 | 1.0 | 3.0 | 0.00 | 0.00 | 0.00 | 97 | 1012.7 |
| 20260904090035 | 47 | 180 | 2.0 | 4.0 | 0.00 | 0.00 | 0.00 | 96 | 1012.6 |
| 20260904084531 | 48 | 165 | 1.0 | 3.0 | 0.00 | 0.00 | 0.00 | 96 | 1012.6 |
| 20260904083036 | 48 | 135 | 0.0 | 0.0 | 0.00 | 0.00 | 0.00 | 96 | 1012.4 |
| 20260904081536 | 49 | 135 | 0.0 | 2.0 | 0.00 | 0.00 | 0.00 | 96 | 1012.5 |
| 20260904074537 | 49 | 145 | 0.0 | 2.0 | 0.00 | 0.00 | 0.00 | 97 | 1012.5 |
| 20260904073037 | 49 | 172 | 1.0 | 3.0 | 0.00 | 0.00 | 0.00 | 97 | 1012.5 |
| 20260904071535 | 48 | 196 | 2.0 | 4.0 | 0.00 | 0.00 | 0.00 | 96 | 1012.5 |
| 20260904070032 | 48 | 180 | 2.0 | 3.0 | 0.00 | 0.00 | 0.00 | 96 | 1012.4 |
| 20260904061609 | 49 | 194 | 1.0 | 3.0 | 0.00 | 0.00 | 0.00 | 95 | 1012.4 |
| 20260904054537 | 49 | 180 | 2.0 | 3.0 | 0.00 | 0.00 | 0.00 | 94 | 1012.3 |
| 20260904053037 | 50 | 180 | 0.0 | 2.0 | 0.00 | 0.00 | 0.00 | 93 | 1012.3 |
| 20260904051642 | 50 | 173 | 2.0 | 3.0 | 0.00 | 0.00 | 0.00 | 93 | 1012.4 |
| 20260904044532 | 51 | 151 | 0.0 | 4.0 | 0.00 | 0.00 | 0.00 | 94 | 1012.5 |
| 20260904043032 | 51 | 180 | 1.0 | 3.0 | 0.00 | 0.00 | 0.00 | 94 | 1012.5 |
| 20260904041536 | 51 | 180 | 1.0 | 3.0 | 0.00 | 0.00 | 0.00 | 93 | 1012.6 |
| 20260904040035 | 51 | 161 | 0.0 | 2.0 | 0.00 | 0.00 | 0.00 | 92 | 1012.5 |
| 20260904034609 | 51 | 157 | 1.0 | 2.0 | 0.00 | 0.00 | 0.00 | 91 | 1012.5 |
| 20260904033143 | 51 | 166 | 1.0 | 3.0 | 0.00 | 0.00 | 0.00 | 90 | 1012.4 |
| 20260904031535 | 52 | 135 | 0.0 | 2.0 | 0.00 | 0.00 | 0.00 | 88 | 1012.2 |
| 20260904030035 | 53 | 128 | 1.0 | 4.0 | 0.00 | 0.00 | 0.00 | 85 | 1012.2 |
| 20260904024536 | 54 | 78 | 1.0 | 5.0 | 0.00 | 0.01 | 0.00 | 83 | 1012.0 |
| 20260904023035 | 55 | 75 | 1.0 | 5.0 | 0.00 | 0.04 | 0.00 | 81 | 1012.1 |
| 20260904021534 | 55 | 56 | 3.0 | 7.0 | 0.00 | 0.04 | 0.00 | 80 | 1011.9 |
| 20260904020109 | 55 | 50 | 3.0 | 8.0 | 0.00 | 0.12 | 0.00 | 79 | 1011.9 |
| 20260904014534 | 56 | 41 | 3.0 | 8.0 | 0.00 | 0.18 | 0.00 | 79 | 1011.9 |
| 20260904013036 | 56 | 44 | 2.0 | 7.0 | 0.00 | 0.18 | 0.00 | 80 | 1011.9 |
| 20260904011536 | 57 | 28 | 1.0 | 4.0 | 0.00 | 0.18 | 0.00 | 77 | 1011.8 |
| 20260904010036 | 59 | 24 | 3.0 | 6.0 | 0.00 | 0.18 | 0.00 | 74 | 1011.8 |
| 20260904004534 | 59 | 15 | 3.0 | 5.0 | 0.00 | 0.21 | 0.00 | 74 | 1011.8 |
| 20260904003036 | 60 | 42 | 3.0 | 7.0 | 0.00 | 0.22 | 0.00 | 73 | 1011.8 |
| 20260904001532 | 60 | 32 | 3.0 | 10.0 | 0.00 | 0.22 | 0.00 | 75 | 1011.8 |
| 20260904000037 | 58 | 50 | 4.0 | 11.0 | 0.00 | 2.80 | 0.00 | 79 | 1011.8 |
| 20260903234535 | 56 | 94 | 1.0 | 7.0 | 0.00 | 2.80 | 0.00 | 81 | 1012.0 |
| 20260903233033 | 57 | 52 | 3.0 | 7.0 | 0.00 | 2.81 | 0.00 | 77 | 1012.0 |
| 20260903224535 | 59 | 32 | 5.0 | 9.0 | 0.00 | 2.83 | 0.00 | 70 | 1012.0 |
| 20260903223045 | 61 | 337 | 5.0 | 11.0 | 0.00 | 2.83 | 0.00 | 66 | 1011.9 |
| 20260903220032 | 63 | 352 | 5.0 | 13.0 | 0.00 | 2.83 | 0.00 | 62 | 1011.7 |
| 20260903213036 | 63 | 40 | 2.0 | 6.0 | 0.00 | 2.86 | 0.00 | 62 | 1011.7 |
| 20260903211537 | 63 | 14 | 2.0 | 6.0 | 0.00 | 2.89 | 0.00 | 61 | 1011.8 |
| 20260903210035 | 63 | 5 | 2.0 | 8.0 | 0.00 | 2.89 | 0.00 | 62 | 1011.9 |
| 20260903204532 | 62 | 7 | 2.0 | 7.0 | 0.00 | 2.92 | 0.00 | 66 | 1011.9 |
| 20260903203034 | 61 | 353 | 3.0 | 9.0 | 0.00 | 2.92 | 0.00 | 69 | 1012.0 |
| 20260903201610 | 63 | 23 | 3.0 | 8.0 | 0.00 | 2.95 | 0.00 | 68 | 1012.2 |
| 20260903193153 | 62 | 16 | 3.0 | 8.0 | 0.00 | 2.95 | 0.00 | 71 | 1012.6 |
| 20260903190035 | 57 | 238 | 1.0 | 5.0 | 0.00 | 2.96 | 0.00 | 81 | 1013.0 |
| 20260903184534 | 56 | 318 | 2.0 | 6.0 | 0.00 | 2.96 | 0.00 | 83 | 1013.1 |